sat.trackr.live / text

‹ back to catalog

UNKNOWN

NORAD 85426

UNKNOWN UNKNOWN UNKNOWN

§ Identity

Operator
Country
Launch date
Launch site
Launch vehicle
Mass (kg)
RCS (m²)

External: N2YO · Heavens-Above

§ Orbital elements

Epoch: 2026-06-24T09:50:02.490720Z

Period
95.81 min
Inclination
97.6843°
Eccentricity
0.0020248
Mean motion
15.02934771 rev/d
Perigee alt
543.8 km
Apogee alt
571.9 km
Semi-major
6,936.0 km
B*
5.2456e-4
RAAN
239.0304°
Arg perigee
262.6478°
Mean anomaly
97.2446°
Rev number
186

§ Raw data

UNKNOWN1 85426U          26175.40975105  .00007017  00000+0  52456-3 0  99962 85426  97.6843 239.0304 0020248 262.6478  97.2446 15.02934771  1862

JSON: /api/v1/satellites/85426 · /tle

For live sub-satellite position, see the globe view (requires WebGL).

§ Visibility from observer

Set your observer location to see the next 7 days of passes ≥ 10°. The values pass through the URL so the page stays shareable.

No JS? Fill the form by hand. The geolocation button needs JavaScript.